| time (UTC) | temp F | wind direction | speed MPH | gust MPH | rain 1hr in | rain 24hr in | rain mn in | humidity % | barometer mb |
| 20260503033041 | 40 | 0 | 0.0 | 0.0 | 0.00 | 0.16 | 0.06 | 69 | 1012.9 |
| 20260503031537 | 41 | 0 | 0.0 | 0.0 | 0.00 | 0.16 | 0.06 | 67 | 1013.0 |
| 20260503030037 | 41 | 242 | 0.0 | 2.0 | 0.00 | 0.16 | 0.06 | 64 | 1013.2 |
| 20260503024538 | 43 | 0 | 0.0 | 0.0 | 0.00 | 0.17 | 0.06 | 62 | 1013.1 |
| 20260503023037 | 43 | 242 | 0.0 | 2.0 | 0.00 | 0.17 | 0.06 | 59 | 1013.3 |
| 20260503021542 | 44 | 0 | 0.0 | 2.0 | 0.00 | 0.17 | 0.06 | 58 | 1013.3 |
| 20260503020040 | 44 | 262 | 0.0 | 3.0 | 0.00 | 0.17 | 0.06 | 57 | 1013.4 |
| 20260503014538 | 45 | 0 | 0.0 | 3.0 | 0.00 | 0.17 | 0.06 | 56 | 1013.4 |
| 20260503013042 | 45 | 271 | 0.0 | 4.0 | 0.00 | 0.17 | 0.06 | 54 | 1013.4 |
| 20260503011537 | 45 | 304 | 0.0 | 4.0 | 0.00 | 0.17 | 0.06 | 54 | 1013.2 |
| 20260503010038 | 46 | 269 | 1.0 | 3.0 | 0.00 | 0.17 | 0.06 | 54 | 1013.2 |
| 20260503004605 | 47 | 0 | 0.0 | 5.0 | 0.00 | 0.17 | 0.06 | 54 | 1013.0 |
| 20260503003045 | 47 | 352 | 0.0 | 4.0 | 0.00 | 0.17 | 0.06 | 52 | 1012.9 |
| 20260503001545 | 48 | 274 | 1.0 | 3.0 | 0.00 | 0.17 | 0.06 | 51 | 1012.7 |
| 20260503000043 | 48 | 234 | 1.0 | 2.0 | 0.00 | 0.17 | 0.06 | 50 | 1012.7 |
| 20260502234549 | 49 | 255 | 1.0 | 7.0 | 0.00 | 0.17 | 0.06 | 49 | 1012.6 |
| 20260502233041 | 49 | 276 | 1.0 | 6.0 | 0.00 | 0.17 | 0.06 | 49 | 1012.5 |
| 20260502231542 | 50 | 276 | 2.0 | 7.0 | 0.00 | 0.17 | 0.06 | 48 | 1012.2 |
| 20260502230040 | 50 | 202 | 1.0 | 6.0 | 0.00 | 0.17 | 0.06 | 48 | 1012.1 |
| 20260502224544 | 51 | 263 | 2.0 | 6.0 | 0.00 | 0.17 | 0.06 | 46 | 1012.1 |
| 20260502223042 | 52 | 211 | 1.0 | 8.0 | 0.00 | 0.17 | 0.06 | 45 | 1012.0 |
| 20260502221544 | 52 | 265 | 1.0 | 6.0 | 0.00 | 0.17 | 0.06 | 46 | 1011.8 |
| 20260502220039 | 53 | 272 | 2.0 | 6.0 | 0.00 | 0.17 | 0.06 | 45 | 1011.6 |
| 20260502214553 | 52 | 244 | 2.0 | 7.0 | 0.00 | 0.17 | 0.06 | 46 | 1011.5 |
| 20260502213039 | 53 | 302 | 3.0 | 9.0 | 0.00 | 0.17 | 0.06 | 42 | 1011.5 |
| 20260502211538 | 54 | 292 | 2.0 | 8.0 | 0.00 | 0.17 | 0.06 | 42 | 1011.4 |
| 20260502210045 | 54 | 273 | 2.0 | 11.0 | 0.00 | 0.17 | 0.06 | 41 | 1011.4 |
| 20260502204537 | 54 | 271 | 2.0 | 10.0 | 0.00 | 0.17 | 0.06 | 42 | 1011.5 |
| 20260502203045 | 55 | 286 | 1.0 | 9.0 | 0.00 | 0.17 | 0.06 | 42 | 1011.6 |
| 20260502201543 | 55 | 273 | 3.0 | 9.0 | 0.00 | 0.17 | 0.06 | 42 | 1011.5 |
| 20260502200044 | 55 | 258 | 3.0 | 9.0 | 0.00 | 0.17 | 0.06 | 41 | 1011.6 |
| 20260502194538 | 55 | 270 | 3.0 | 12.0 | 0.00 | 0.17 | 0.06 | 40 | 1011.8 |
| 20260502193039 | 55 | 257 | 3.0 | 9.0 | 0.00 | 0.17 | 0.06 | 42 | 1011.7 |
| 20260502191540 | 55 | 277 | 6.0 | 12.0 | 0.00 | 0.17 | 0.06 | 40 | 1011.9 |
| 20260502190050 | 55 | 265 | 3.0 | 9.0 | 0.00 | 0.17 | 0.06 | 43 | 1012.0 |
| 20260502184542 | 56 | 160 | 4.0 | 10.0 | 0.00 | 0.17 | 0.06 | 44 | 1011.9 |
| 20260502183039 | 55 | 234 | 2.0 | 11.0 | 0.00 | 0.17 | 0.06 | 45 | 1011.7 |
| 20260502181544 | 54 | 246 | 2.0 | 6.0 | 0.00 | 0.17 | 0.06 | 48 | 1011.8 |
| 20260502163048 | 52 | 171 | 3.0 | 7.0 | 0.00 | 0.17 | 0.06 | 60 | 1012.5 |
| 20260502161545 | 50 | 0 | 1.0 | 4.0 | 0.00 | 0.17 | 0.06 | 64 | 1012.8 |
| 20260502151551 | 49 | 259 | 2.0 | 6.0 | 0.00 | 0.17 | 0.06 | 68 | 1013.0 |
| 20260502123047 | 43 | 240 | 1.0 | 6.0 | 0.00 | 0.17 | 0.06 | 90 | 1013.1 |
| 20260502121537 | 43 | 182 | 0.0 | 2.0 | 0.00 | 0.17 | 0.06 | 91 | 1013.1 |
| 20260502114548 | 42 | 0 | 0.0 | 3.0 | 0.00 | 0.17 | 0.06 | 92 | 1013.0 |
| 20260502113043 | 42 | 0 | 0.0 | 3.0 | 0.00 | 0.17 | 0.06 | 93 | 1012.9 |
| 20260502111540 | 42 | 254 | 1.0 | 3.0 | 0.00 | 0.17 | 0.06 | 93 | 1012.8 |
| 20260502110039 | 43 | 254 | 0.0 | 2.0 | 0.00 | 0.17 | 0.06 | 93 | 1012.8 |
| 20260502104538 | 43 | 0 | 0.0 | 1.0 | 0.00 | 0.17 | 0.06 | 94 | 1012.4 |
| 20260502103037 | 43 | 255 | 0.0 | 3.0 | 0.00 | 0.17 | 0.06 | 94 | 1012.2 |
| 20260502101540 | 44 | 227 | 0.0 | 3.0 | 0.00 | 0.17 | 0.06 | 93 | 1012.0 |
| 20260502100108 | 45 | 210 | 1.0 | 5.0 | 0.00 | 0.17 | 0.06 | 94 | 1011.7 |
| 20260502070048 | 46 | 0 | 0.0 | 1.0 | 0.01 | 0.17 | 0.06 | 93 | 1011.8 |
| 20260502064541 | 46 | 0 | 0.0 | 0.0 | 0.01 | 0.16 | 0.05 | 93 | 1011.7 |
| 20260502063038 | 46 | 0 | 0.0 | 1.0 | 0.01 | 0.16 | 0.05 | 93 | 1011.9 |
| 20260502061540 | 46 | 0 | 0.0 | 0.0 | 0.01 | 0.16 | 0.05 | 93 | 1011.9 |
| 20260502060038 | 46 | 0 | 0.0 | 1.0 | 0.01 | 0.16 | 0.05 | 93 | 1012.0 |
| 20260502054545 | 46 | 0 | 0.0 | 0.0 | 0.00 | 0.15 | 0.04 | 92 | 1012.1 |
| 20260502053041 | 46 | 240 | 0.0 | 3.0 | 0.00 | 0.15 | 0.04 | 92 | 1011.7 |
| 20260502051541 | 46 | 0 | 0.0 | 1.0 | 0.01 | 0.15 | 0.04 | 92 | 1012.2 |
| 20260502050038 | 46 | 0 | 0.0 | 3.0 | 0.04 | 0.15 | 0.04 | 91 | 1012.6 |
| 20260502044538 | 46 | 238 | 1.0 | 3.0 | 0.09 | 0.15 | 0.04 | 91 | 1012.3 |
| 20260502043039 | 47 | 0 | 0.0 | 2.0 | 0.11 | 0.15 | 0.04 | 90 | 1012.1 |
| 20260502041536 | 47 | 0 | 0.0 | 2.0 | 0.11 | 0.14 | 0.03 | 90 | 1012.3 |
| 20260502040044 | 47 | 0 | 0.0 | 0.0 | 0.09 | 0.11 | 0.00 | 89 | 1012.8 |
| 20260502034542 | 48 | 0 | 0.0 | 0.0 | 0.06 | 0.06 | 0.06 | 88 | 1012.7 |